sat.trackr.live / text

‹ back to catalog

STARLINK-4574

NORAD 53733 · 2022-107AK

PAYLOAD ACTIVE UNKNOWN

§ Identity

Operator
Country
US
Launch date
2022-09-05
Launch site
AFETR
Launch vehicle
Mass (kg)
RCS (m²)

Purposes: comms

External: N2YO · Heavens-Above · Gunter

§ Orbital elements

Epoch: 2026-09-20T22:10:09.446880Z

Period
93.90 min
Inclination
53.1564°
Eccentricity
0.0001109
Mean motion
15.33551332 rev/d
Perigee alt
464.5 km
Apogee alt
466.0 km
Semi-major
6,843.4 km
B*
1.5193e-5
RAAN
81.8464°
Arg perigee
89.8111°
Mean anomaly
270.3018°
Rev number
22,427

§ Raw data

STARLINK-45741 53733U 22107AK  26263.92372045  .00000127  00000+0  15193-4 0  99962 53733  53.1564  81.8464 0001109  89.8111 270.3018 15.33551332224276

JSON: /api/v1/satellites/53733 · /tle

For live sub-satellite position, see the globe view (requires WebGL).

§ Visibility from observer

Set your observer location to see the next 7 days of passes ≥ 10°. The values pass through the URL so the page stays shareable.

No JS? Fill the form by hand. The geolocation button needs JavaScript.